This is the latest recevied weather packets stored in our database for station/object SP3SWJ-13. If no packets are shown the sender has not sent any weather packets the latest 10 day(s).
| Time | Temp. | Humidity | Pressure | Rain* | Wind** | Luminosity | Snow |
|---|---|---|---|---|---|---|---|
| 1777453985 | 9.44° C | 30% | 1020.7 hPa | - | - | 614 W/m² | - |
| 1777453683 | 10° C | 31% | 1020.6 hPa | - | - | 168 W/m² | - |
| 1777453382 | 10.56° C | 29% | 1020.6 hPa | - | - | 689 W/m² | - |
| 1777453082 | 10° C | 29% | 1020.6 hPa | - | - | 682 W/m² | - |
| 1777452781 | 10° C | 28% | 1020.6 hPa | - | - | 646 W/m² | - |
| 1777452480 | 10° C | 29% | 1020.6 hPa | - | - | 593 W/m² | - |
| 1777452179 | 9.44° C | 29% | 1020.6 hPa | - | - | 576 W/m² | - |
| 1777451878 | 9.44° C | 30% | 1020.7 hPa | - | - | 568 W/m² | - |
| 1777451577 | 9.44° C | 29% | 1020.7 hPa | - | - | 561 W/m² | - |
| 1777451276 | 10° C | 29% | 1020.7 hPa | - | - | 553 W/m² | - |
| 1777450975 | 9.44° C | 29% | 1020.6 hPa | - | - | 545 W/m² | - |
| 1777450674 | 9.44° C | 30% | 1020.8 hPa | - | - | 529 W/m² | - |
| 1777450373 | 8.89° C | 29% | 1020.7 hPa | - | - | 515 W/m² | - |
| 1777450072 | 9.44° C | 29% | 1020.7 hPa | - | - | 506 W/m² | - |
| 1777449771 | 9.44° C | 29% | 1020.7 hPa | - | - | 496 W/m² | - |
| 1777449469 | 8.89° C | 30% | 1020.6 hPa | - | - | 484 W/m² | - |
| 1777449169 | 8.89° C | 29% | 1020.6 hPa | - | - | 471 W/m² | - |
| 1777448868 | 8.89° C | 29% | 1020.6 hPa | - | - | 456 W/m² | - |
| 1777448567 | 8.89° C | 29% | 1020.6 hPa | - | - | 439 W/m² | - |
| 1777448266 | 8.89° C | 29% | 1020.5 hPa | - | - | 427 W/m² | - |
| 1777447965 | 8.89° C | 29% | 1020.5 hPa | - | - | 416 W/m² | - |
| 1777447664 | 8.89° C | 29% | 1020.6 hPa | - | - | 406 W/m² | - |
| 1777447363 | 8.89° C | 30% | 1020.6 hPa | - | - | 394 W/m² | - |
| 1777447062 | 8.33° C | 32% | 1020.6 hPa | - | - | 378 W/m² | - |
| 1777446761 | 7.78° C | 32% | 1020.5 hPa | - | - | 364 W/m² | - |
* Rain since midnight (hover to see other rain measurements)
** Current wind speed in m/s (hover to see current wind gust speed)